Location: Prague
(50.0830°N, 14.4670°E)
Time: 18:46:40
(UTC+02:00)

ISS - Pass Details

Date: 02 October 2021
Orbit: 417 x 423 km, 51.6° (Epoch: 25 October)

Event Time Altitude Azimuth Distance (km) Brightness Sun altitude
Rises 19:29:34 0° 287° (WNW) 2,366 2.0 -9.1°
Reaches altitude 10° 19:31:41 10° 284° (WNW) 1,501 0.6 -9.4°
Maximum altitude 19:35:00 62° 204° (SSW) 476 -3.4 -10.0°
Enters shadow 19:37:54 13° 124° (ESE) 1,321 -1.8 -10.4°
